Location: Plainartige
(45.6866°N, 1.7993°E)
Time: 04:10:24
(UTC+00:00)

Oscar 19 - Pass Details

Date: 30 June 2022
Orbit: 773 x 790 km, 98.8° (Epoch: 14 August)

Event Time Altitude Azimuth Distance (km) Brightness Sun altitude
Rises 02:36:50 0° 24° (NNE) 3,262 15.6 -12.1°
Reaches altitude 10° 02:39:27 10° 36° (NE) 2,329 14.7 -11.8°
Maximum altitude 02:43:52 29° 95° (E) 1,406 12.4 -11.3°
Drops below altitude 10° 02:48:15 10° 155° (SSE) 2,313 12.8 -10.9°
Sets 02:50:51 0° 166° (SSE) 3,236 13.5 -10.6°
